Time,TemperatureF,DewpointF,PressureIn,WindDirection,WindDirectionDegrees,WindSpeedMPH,WindSpeedGustMPH,Humidity,HourlyPrecipIn,Conditions,Clouds,dailyrainin,SoftwareType,DateUTC
2013-10-25 06:21:00,49.0,49.0,30.24,North,0,0.0,0.0,100,0.00,,,0.00,,2013-10-25 13:21:00,
2013-10-25 06:52:00,49.0,49.0,30.25,North,0,0.0,0.0,100,0.00,,,0.00,,2013-10-25 13:52:00,
2013-10-25 07:22:00,49.0,49.0,30.24,North,0,0.0,4.0,100,0.00,,,0.00,,2013-10-25 14:22:00,
2013-10-25 07:52:00,49.0,49.0,30.24,North,0,0.0,6.0,100,0.00,,,0.00,,2013-10-25 14:52:00,
2013-10-25 08:21:00,49.0,49.0,30.25,North,0,0.0,0.0,100,0.00,,,0.00,,2013-10-25 15:21:00,
2013-10-25 08:53:00,50.0,50.0,30.26,North,0,0.0,0.0,100,0.00,,,0.00,,2013-10-25 15:53:00,
2013-10-25 09:23:00,50.0,50.0,30.27,North,0,0.0,0.0,100,0.00,,,0.00,,2013-10-25 16:23:00,
2013-10-25 09:53:00,51.0,51.0,30.27,North,0,0.0,0.0,100,0.00,,,0.00,,2013-10-25 16:53:00,
2013-10-25 10:22:00,51.0,51.0,30.27,North,0,0.0,0.0,100,0.00,,,0.00,,2013-10-25 17:22:00,
2013-10-25 10:33:00,51.0,51.0,30.27,North,0,0.0,0.0,100,0.00,,,0.00,,2013-10-25 17:33:00,
2013-10-25 10:52:00,51.0,51.0,30.27,NW,319,1.0,5.0,100,0.00,,,0.00,,2013-10-25 17:52:00,
2013-10-25 11:12:00,51.0,51.0,30.27,North,0,0.0,0.0,100,0.00,,,0.00,,2013-10-25 18:12:00,
2013-10-25 11:21:00,52.0,52.0,30.27,North,0,0.0,0.0,100,0.00,,,0.00,,2013-10-25 18:21:00,
2013-10-25 11:52:00,52.0,52.0,30.27,NW,320,1.0,7.0,100,0.00,,,0.00,,2013-10-25 18:52:00,
2013-10-25 12:11:00,52.0,52.0,30.27,WNW,284,1.0,4.0,100,0.00,,,0.00,,2013-10-25 19:11:00,
2013-10-25 12:22:00,52.0,52.0,30.27,NW,319,2.0,7.0,100,0.00,,,0.00,,2013-10-25 19:22:00,
2013-10-25 12:52:00,52.0,52.0,30.27,West,281,5.0,8.0,100,0.00,,,0.00,,2013-10-25 19:52:00,
2013-10-25 13:22:00,52.0,52.0,30.26,NW,320,0.0,7.0,100,0.00,,,0.00,,2013-10-25 20:22:00,
2013-10-25 13:52:00,52.0,52.0,30.26,North,0,0.0,7.0,100,0.00,,,0.00,,2013-10-25 20:52:00,
2013-10-25 14:21:00,53.0,53.0,30.25,NE,39,0.0,8.0,100,0.00,,,0.00,,2013-10-25 21:21:00,
2013-10-25 14:54:00,52.0,52.0,30.25,NNE,21,5.0,10.0,100,0.00,,,0.00,,2013-10-25 21:54:00,
2013-10-25 15:23:00,52.0,52.0,30.25,NNE,14,4.0,11.0,100,0.00,,,0.00,,2013-10-25 22:23:00,
2013-10-25 15:52:00,52.0,52.0,30.25,North,0,0.0,9.0,100,0.00,,,0.00,,2013-10-25 22:52:00,
2013-10-25 16:22:00,52.0,52.0,30.25,NNW,336,3.0,8.0,100,0.00,,,0.00,,2013-10-25 23:22:00,
2013-10-25 16:42:00,52.0,52.0,30.25,NNE,12,3.0,9.0,100,0.00,,,0.00,,2013-10-25 23:42:00,
2013-10-25 16:52:00,52.0,52.0,30.25,NNE,12,3.0,9.0,100,0.00,,,0.00,,2013-10-25 23:52:00,
2013-10-25 17:21:00,52.0,52.0,30.25,NNE,22,1.0,10.0,100,0.00,,,0.00,,2013-10-26 00:21:00,
2013-10-25 17:52:00,52.0,52.0,30.25,North,0,0.0,0.0,100,0.00,,,0.00,,2013-10-26 00:52:00,
2013-10-25 18:21:00,52.0,52.0,30.25,North,0,0.0,0.0,100,0.00,,,0.00,,2013-10-26 01:21:00,
2013-10-25 18:52:00,52.0,52.0,30.25,North,0,0.0,0.0,100,0.00,,,0.00,,2013-10-26 01:52:00,
2013-10-25 19:22:00,52.0,52.0,30.26,North,0,0.0,3.0,100,0.00,,,0.00,,2013-10-26 02:22:00,
2013-10-25 19:52:00,52.0,52.0,30.27,North,0,0.0,0.0,100,0.00,,,0.00,,2013-10-26 02:52:00,
2013-10-25 20:02:00,52.0,52.0,30.27,North,0,0.0,0.0,100,0.00,,,0.00,,2013-10-26 03:02:00,
2013-10-25 20:21:00,51.0,51.0,30.27,North,0,0.0,0.0,100,0.00,,,0.00,,2013-10-26 03:21:00,
2013-10-25 20:54:00,51.0,51.0,30.27,North,0,0.0,7.0,100,0.00,,,0.00,,2013-10-26 03:54:00,
2013-10-25 21:24:00,51.0,51.0,30.28,North,0,0.0,0.0,100,0.00,,,0.00,,2013-10-26 04:24:00,
2013-10-25 21:54:00,51.0,51.0,30.28,North,0,0.0,4.0,100,0.00,,,0.00,,2013-10-26 04:54:00,
2013-10-25 22:23:00,50.0,50.0,30.29,North,0,0.0,6.0,100,0.00,,,0.00,,2013-10-26 05:23:00,
2013-10-25 22:52:00,50.0,50.0,30.28,North,0,0.0,0.0,100,0.00,,,0.00,,2013-10-26 05:52:00,
2013-10-25 23:12:00,50.0,50.0,30.29,North,0,0.0,0.0,100,0.00,,,0.00,,2013-10-26 06:12:00,
2013-10-25 23:22:00,50.0,50.0,30.29,North,0,0.0,0.0,100,0.00,,,0.00,,2013-10-26 06:22:00,
2013-10-25 23:52:00,50.0,50.0,30.29,North,0,0.0,0.0,100,0.00,,,0.00,,2013-10-26 06:52:00,